TimeAKST,TemperatureF,Dew PointF,Humidity,Sea Level PressureIn,VisibilityMPH,Wind Direction,Wind SpeedMPH,Gust SpeedMPH,PrecipitationIn,Events,Conditions,WindDirDegrees,DateUTC
12:16 AM,-22.0,-9999,N/A,30.47,10.0,NNW,4.6,-,N/A,,Clear,330,2013-02-18 09:16:00
12:36 AM,-20.2,-29.2,63,30.47,10.0,North,6.9,-,N/A,,Clear,350,2013-02-18 09:36:00
12:56 AM,-18.4,-25.6,70,30.47,10.0,North,8.1,-,N/A,,Clear,350,2013-02-18 09:56:00
1:16 AM,-18.4,-9999,N/A,30.46,10.0,North,8.1,-,N/A,,Clear,360,2013-02-18 10:16:00
1:36 AM,-18.4,-23.8,76,30.46,10.0,NNE,6.9,-,N/A,,Clear,20,2013-02-18 10:36:00
1:56 AM,-16.6,-9999,N/A,30.45,10.0,North,6.9,-,N/A,,Clear,350,2013-02-18 10:56:00
2:16 AM,-16.6,-27.4,58,30.44,10.0,NW,9.2,-,N/A,,Clear,310,2013-02-18 11:16:00
2:36 AM,-18.4,-9999,N/A,30.43,10.0,NW,10.4,-,N/A,,Clear,310,2013-02-18 11:36:00
2:56 AM,-20.2,-25.6,76,30.43,10.0,NW,9.2,-,N/A,,Clear,320,2013-02-18 11:56:00
3:16 AM,-22.0,-9999,N/A,30.43,10.0,NW,11.5,-,N/A,,Clear,310,2013-02-18 12:16:00
3:36 AM,-25.6,-9999,N/A,30.43,10.0,NW,11.5,-,N/A,,Clear,320,2013-02-18 12:36:00
3:56 AM,-23.8,-9999,N/A,30.43,10.0,NW,10.4,-,N/A,,Clear,310,2013-02-18 12:56:00
4:16 AM,-23.8,-9999,N/A,30.43,10.0,NW,10.4,-,N/A,,Clear,320,2013-02-18 13:16:00
4:36 AM,-23.8,-9999,N/A,30.43,10.0,NNW,10.4,-,N/A,,Clear,330,2013-02-18 13:36:00
4:56 AM,-22.0,-22.0,100,30.42,10.0,North,9.2,-,N/A,,Clear,360,2013-02-18 13:56:00
5:16 AM,-20.2,-9999,N/A,30.42,10.0,North,5.8,-,N/A,,Clear,350,2013-02-18 14:16:00
5:36 AM,-23.8,-9999,N/A,30.42,10.0,WNW,4.6,-,N/A,,Clear,290,2013-02-18 14:36:00
5:56 AM,-20.2,-67.0,7,30.42,10.0,WNW,3.5,-,N/A,,Clear,300,2013-02-18 14:56:00
6:16 AM,-20.2,-9999,N/A,30.42,10.0,NW,4.6,-,N/A,,Clear,320,2013-02-18 15:16:00
6:36 AM,-20.2,-9999,N/A,30.42,10.0,WNW,6.9,-,N/A,,Clear,300,2013-02-18 15:36:00
6:56 AM,-23.8,-9999,N/A,30.41,10.0,NW,6.9,-,N/A,,Clear,310,2013-02-18 15:56:00
7:16 AM,-25.6,-9999,N/A,30.42,10.0,NW,9.2,-,N/A,,Clear,320,2013-02-18 16:16:00
7:36 AM,-25.6,-9999,N/A,30.41,10.0,NW,10.4,-,N/A,,Clear,320,2013-02-18 16:36:00
7:56 AM,-25.6,-9999,N/A,30.42,10.0,NW,10.4,-,N/A,,Clear,310,2013-02-18 16:56:00
8:16 AM,-25.6,-9999,N/A,30.42,10.0,North,4.6,-,N/A,,Clear,10,2013-02-18 17:16:00
8:36 AM,-23.8,-9999,N/A,30.42,10.0,NNW,9.2,-,N/A,,Clear,340,2013-02-18 17:36:00
8:56 AM,-23.8,-9999,N/A,30.42,10.0,NW,9.2,-,N/A,,Clear,320,2013-02-18 17:56:00
9:16 AM,-25.6,-9999,N/A,30.40,10.0,North,9.2,-,N/A,,Clear,10,2013-02-18 18:16:00
9:36 AM,-23.8,-9999,N/A,30.38,10.0,North,9.2,-,N/A,,Clear,10,2013-02-18 18:36:00
9:56 AM,-18.4,-9999,N/A,30.35,10.0,NW,3.5,-,N/A,,Clear,310,2013-02-18 18:56:00
10:16 AM,-22.0,-9999,N/A,30.33,10.0,NW,10.4,-,N/A,,Clear,320,2013-02-18 19:16:00
10:36 AM,-25.6,-9999,N/A,30.33,10.0,NW,11.5,-,N/A,,Clear,310,2013-02-18 19:36:00
10:56 AM,-25.6,-9999,N/A,30.32,10.0,NW,12.7,-,N/A,,Clear,310,2013-02-18 19:56:00
11:16 AM,-25.6,-9999,N/A,30.32,10.0,NW,12.7,-,N/A,,Clear,310,2013-02-18 20:16:00
11:36 AM,-25.6,-9999,N/A,30.30,10.0,NW,12.7,-,N/A,,Clear,320,2013-02-18 20:36:00
11:56 AM,-25.6,-9999,N/A,30.30,10.0,NW,12.7,-,N/A,,Clear,310,2013-02-18 20:56:00
12:16 PM,-25.6,-9999,N/A,30.29,10.0,NW,10.4,-,N/A,,Clear,310,2013-02-18 21:16:00
12:36 PM,-23.8,-9999,N/A,30.27,10.0,NW,9.2,-,N/A,,Clear,320,2013-02-18 21:36:00
12:56 PM,-23.8,-29.2,76,30.27,10.0,WNW,9.2,-,N/A,,Clear,300,2013-02-18 21:56:00
1:16 PM,-22.0,-9999,N/A,30.27,10.0,WNW,9.2,-,N/A,,Clear,300,2013-02-18 22:16:00
1:36 PM,-20.2,-29.2,63,30.26,10.0,NW,9.2,-,N/A,,Clear,310,2013-02-18 22:36:00
1:56 PM,-18.4,-29.2,58,30.28,10.0,WSW,4.6,-,N/A,,Clear,250,2013-02-18 22:56:00
2:16 PM,-18.4,-22.0,84,30.27,10.0,WNW,9.2,-,N/A,,Clear,300,2013-02-18 23:16:00
2:36 PM,-14.8,-23.8,64,30.26,10.0,West,8.1,-,N/A,,Clear,280,2013-02-18 23:36:00
2:56 PM,-16.6,-9999,N/A,30.25,10.0,WNW,8.1,-,N/A,,Clear,290,2013-02-18 23:56:00
3:16 PM,-9.4,-9999,N/A,30.22,10.0,NNW,5.8,-,N/A,,Clear,340,2013-02-19 00:16:00
3:36 PM,-9.4,-9999,N/A,30.21,10.0,North,9.2,-,N/A,,Clear,360,2013-02-19 00:36:00
3:56 PM,-11.2,-9999,N/A,30.20,10.0,North,4.6,-,N/A,,Clear,10,2013-02-19 00:56:00
4:16 PM,-9.4,-9999,N/A,30.20,10.0,WNW,6.9,16.1,N/A,,Clear,300,2013-02-19 01:16:00
4:36 PM,-4.0,-9999,N/A,30.19,10.0,NNE,5.8,-,N/A,,Clear,20,2013-02-19 01:36:00
4:56 PM,-0.4,-22.0,36,30.17,10.0,ENE,10.4,19.6,N/A,,Clear,70,2013-02-19 01:56:00
5:16 PM,-0.4,-22.0,36,30.13,10.0,ENE,17.3,-,N/A,,Clear,70,2013-02-19 02:16:00
5:36 PM,-5.8,-23.8,42,30.14,10.0,NNE,5.8,-,N/A,,Clear,20,2013-02-19 02:36:00
5:56 PM,1.4,-11.2,56,30.16,10.0,ENE,8.1,-,N/A,,Clear,70,2013-02-19 02:56:00
6:16 PM,-0.4,-22.0,36,30.16,10.0,East,18.4,26.5,N/A,,Clear,80,2013-02-19 03:16:00
6:36 PM,-0.4,-16.6,46,30.15,10.0,East,20.7,25.3,N/A,,Clear,90,2013-02-19 03:36:00
6:56 PM,-0.4,-18.4,43,30.16,10.0,ESE,17.3,20.7,N/A,,Clear,110,2013-02-19 03:56:00
7:16 PM,1.4,-14.8,47,30.15,10.0,East,21.9,25.3,N/A,,Clear,80,2013-02-19 04:16:00
7:36 PM,1.4,-16.6,43,30.15,10.0,East,17.3,28.8,N/A,,Clear,80,2013-02-19 04:36:00
7:56 PM,-2.2,-20.2,42,30.13,10.0,East,11.5,-,N/A,,Clear,80,2013-02-19 04:56:00
8:16 PM,1.4,-7.6,66,30.12,10.0,ENE,21.9,-,N/A,,Clear,60,2013-02-19 05:16:00
8:36 PM,1.4,-18.4,39,30.12,10.0,NE,18.4,-,N/A,,Clear,50,2013-02-19 05:36:00
8:56 PM,-0.4,-16.6,46,30.12,10.0,NE,21.9,-,N/A,,Clear,50,2013-02-19 05:56:00
9:16 PM,-0.4,-11.2,60,30.12,10.0,ENE,17.3,-,N/A,,Clear,60,2013-02-19 06:16:00
9:36 PM,-0.4,-18.4,43,30.11,10.0,East,20.7,-,N/A,,Clear,90,2013-02-19 06:36:00
9:56 PM,-0.4,-18.4,43,30.11,10.0,East,21.9,-,N/A,,Clear,80,2013-02-19 06:56:00
10:16 PM,-0.4,-9.4,66,30.11,10.0,ENE,21.9,25.3,N/A,,Clear,60,2013-02-19 07:16:00
10:36 PM,-0.4,-18.4,43,30.09,10.0,ENE,25.3,28.8,N/A,,Clear,60,2013-02-19 07:36:00
10:56 PM,-0.4,-14.8,51,30.10,10.0,ENE,20.7,-,N/A,,Clear,70,2013-02-19 07:56:00
11:16 PM,-0.4,-13.0,55,30.09,10.0,ENE,24.2,-,N/A,,Clear,60,2013-02-19 08:16:00
11:36 PM,-0.4,-23.8,32,30.07,10.0,ENE,25.3,-,N/A,,Clear,60,2013-02-19 08:36:00
11:56 PM,-0.4,-47.2,9,30.06,10.0,ENE,26.5,31.1,N/A,,Clear,60,2013-02-19 08:56:00